TimeCDT,TemperatureF,Dew PointF,Humidity,Sea Level PressureIn,VisibilityMPH,Wind Direction,Wind SpeedMPH,Gust SpeedMPH,PrecipitationIn,Events,Conditions,WindDirDegrees,DateUTC
12:53 AM,55.9,46.9,72,29.88,10.0,South,4.6,-,N/A,,Clear,190,2012-09-19 05:53:00
1:53 AM,54.0,46.0,75,29.87,10.0,Calm,Calm,-,N/A,,Clear,0,2012-09-19 06:53:00
2:53 AM,53.1,45.0,74,29.86,10.0,WSW,4.6,-,N/A,,Clear,240,2012-09-19 07:53:00
3:53 AM,51.1,45.0,80,29.85,10.0,Calm,Calm,-,N/A,,Clear,0,2012-09-19 08:53:00
4:53 AM,51.1,44.1,77,29.84,10.0,SW,6.9,-,N/A,,Clear,220,2012-09-19 09:53:00
5:53 AM,52.0,43.0,71,29.85,10.0,West,4.6,-,N/A,,Clear,260,2012-09-19 10:53:00
6:53 AM,51.1,43.0,74,29.86,10.0,WSW,4.6,-,N/A,,Clear,250,2012-09-19 11:53:00
7:53 AM,53.1,43.0,69,29.86,10.0,WSW,4.6,-,N/A,,Clear,250,2012-09-19 12:53:00
8:53 AM,60.1,43.0,53,29.85,10.0,WSW,3.5,-,N/A,,Clear,240,2012-09-19 13:53:00
9:53 AM,66.0,43.0,43,29.86,10.0,WSW,8.1,-,N/A,,Clear,240,2012-09-19 14:53:00
10:53 AM,78.1,43.0,29,29.84,10.0,WSW,8.1,-,N/A,,Clear,240,2012-09-19 15:53:00
11:53 AM,84.9,41.0,21,29.83,10.0,WSW,12.7,-,N/A,,Clear,250,2012-09-19 16:53:00
12:53 PM,88.0,37.9,17,29.85,10.0,WNW,16.1,-,N/A,,Clear,290,2012-09-19 17:53:00
1:53 PM,86.0,33.1,15,29.88,10.0,NNW,23.0,32.2,N/A,,Clear,340,2012-09-19 18:53:00
2:53 PM,87.1,35.1,16,29.89,10.0,North,21.9,26.5,N/A,,Clear,350,2012-09-19 19:53:00
3:53 PM,84.9,35.1,17,29.90,10.0,North,23.0,28.8,N/A,,Clear,360,2012-09-19 20:53:00
4:53 PM,82.9,36.0,19,29.92,10.0,North,17.3,25.3,N/A,,Clear,350,2012-09-19 21:53:00
5:53 PM,81.0,32.0,17,29.93,10.0,North,19.6,27.6,N/A,,Clear,360,2012-09-19 22:53:00
6:53 PM,77.0,30.9,19,29.96,10.0,NNW,17.3,-,N/A,,Clear,340,2012-09-19 23:53:00
7:53 PM,69.8,28.4,21,30.00,10.0,North,11.5,-,N/A,,Clear,360,2012-09-20 00:53:00
8:53 PM,64.0,30.0,28,30.01,10.0,North,6.9,-,N/A,,Clear,360,2012-09-20 01:53:00
9:53 PM,61.0,32.0,34,30.02,10.0,North,6.9,-,N/A,,Clear,360,2012-09-20 02:53:00
10:53 PM,55.9,34.0,44,30.02,10.0,NNW,5.8,-,N/A,,Clear,340,2012-09-20 03:53:00
11:53 PM,53.1,34.0,48,30.03,10.0,North,3.5,-,N/A,,Clear,350,2012-09-20 04:53:00